Wind_Speed
28 28 27 27 28 28 27 26 25 24 24 23 23 23 23 23 24 25 27 28 27 26 26 26 25 23 21 20 20 19 19 19 19 18 18 17 16 15 14 13 13 12 12
32 32 31 31 31 31 30 29 28 27 26 26 27 27 27 27 27 28 29 31 32 31 30 30 29 27 25 24 23 22 22 21 21 21 20 20 19 18 17 16 15 14 14
35 36 36 35 35 34 33 32 31 30 30 29 30 30 29 30 30 31 32 33 34 35 35 33 32 31 29 28 27 26 25 24 23 23 23 22 22 21 20 19 18 17 16
37 37 38 39 39 38 36 35 34 34 33 32 32 32 31 32 32 33 34 35 36 37 37 37 35 33 32 30 29 28 28 27 26 25 25 25 24 24 23 21 20 19 18
38 39 39 40 40 39 39 38 37 36 36 35 34 33 32 32 34 35 36 37 37 37 38 37 36 35 33 32 31 31 31 30 30 28 27 27 27 26 25 24 23 21 21
39 40 40 40 39 38 39 39 38 38 37 37 35 33 33 33 35 36 37 38 37 37 37 37 37 36 34 33 32 32 32 32 32 31 30 29 28 28 27 26 25 24 22
39 40 40 40 39 39 41 39 38 38 37 37 36 35 35 35 36 37 39 39 37 36 35 35 36 35 33 32 31 32 32 32 32 31 31 30 30 29 29 28 27 26 24
41 42 42 41 41 41 41 40 39 37 35 35 36 37 35 35 36 38 39 38 35 33 33 33 34 34 33 31 31 31 32 32 32 31 31 31 30 30 29 29 28 27 26
43 44 44 44 44 44 43 42 40 37 37 36 37 38 37 35 35 36 38 36 33 32 32 32 33 33 31 30 31 31 31 31 31 30 30 30 30 30 30 29 29 28 27
40 41 41 41 42 42 41 41 40 40 39 38 38 39 39 38 37 35 35 36 34 32 32 31 33 32 31 30 30 30 30 29 29 29 28 28 28 28 29 29 29 28 28
36 37 38 38 39 40 41 41 42 42 41 41 41 41 41 41 39 37 35 35 33 32 33 33 33 32 31 30 29 29 28 27 27 27 26 25 26 26 27 28 28 28 27
37 38 39 40 41 42 43 44 44 44 44 44 43 43 43 42 41 39 35 34 32 33 33 34 33 32 31 29 28 28 28 27 26 25 25 24 24 25 25 26 27 27 27
41 41 42 43 44 45 45 46 46 46 46 46 45 45 44 43 40 37 34 33 31 30 30 30 32 31 30 29 28 28 28 27 27 26 24 24 24 24 25 26 27 27 28
44 44 45 46 46 46 47 47 46 46 46 46 46 45 43 41 39 35 32 30 30 29 28 29 30 30 29 28 28 27 27 28 27 27 26 26 26 26 26 27 28 29 29
46 46 46 47 47 47 47 46 46 45 46 45 44 42 40 38 35 32 29 28 29 30 30 30 30 29 27 27 26 27 27 28 28 28 27 27 28 28 28 29 30 31 31
45 45 45 45 46 45 44 43 42 42 42 41 39 37 35 33 31 28 27 26 26 27 28 29 29 28 27 26 26 26 27 28 28 28 29 28 28 29 30 30 31 31 32
41 42 42 43 42 41 39 38 37 37 35 34 33 32 30 28 28 26 26 27 27 26 26 27 27 25 25 25 25 26 27 28 29 29 29 29 29 30 30 31 32 32 32
37 37 38 37 36 35 34 34 32 31 30 30 29 27 26 26 25 25 26 26 26 25 24 24 24 24 24 24 25 26 27 29 30 30 31 31 32 32 33 34 34 34 34
33 33 32 31 30 29 29 27 27 26 26 26 26 25 25 24 25 25 25 24 24 23 22 22 22 22 23 24 25 27 28 30 31 32 33 33 34 35 36 36 37 37 37
29 28 27 26 25 24 22 19 20 22 24 24 25 25 24 25 25 24 24 23 23 22 21 20 21 22 23 24 26 28 29 30 32 33 35 36 36 37 38 39 39 39 40
25 24 22 21 20 18 17 17 17 19 21 22 23 23 24 24 24 23 22 21 20 19 19 19 20 21 23 25 26 28 29 31 32 34 35 36 37 38 39 39 40 41 41
22 21 19 18 16 14 14 16 17 19 20 21 22 23 23 23 22 20 18 18 18 17 17 19 20 21 23 24 25 27 28 29 31 32 34 35 36 37 38 39 40 40 41
21 20 18 16 14 13 12 13 13 14 16 18 18 19 18 16 15 14 14 14 15 15 16 17 18 19 20 22 23 25 26 28 30 31 33 34 35 36 37 37 38 39 39
20 19 17 15 13 12 12 12 12 12 12 12 13 12 12 11 11 11 11 11 11 12 13 14 15 16 18 19 21 23 25 28 30 32 33 34 35 36 37 37 38 38 38
19 18 17 15 13 13 12 11 10 10 9 8 8 8 9 9 8 8 8 9 10 10 11 12 13 15 17 19 21 23 25 28 30 31 32 34 34 35 35 35 35 35 35
19 17 16 14 13 11 10 8 7 7 8 8 7 7 6 6 6 6 7 7 8 8 9 11 13 15 17 19 21 24 26 28 30 31 32 33 33 33 33 33 32 32 33
Wind_Direction
289 289 289 290 292 292 291 290 290 290 289 288 288 287 287 286 284 283 280 278 277 279 281 282 283 283 283 281 278 273 268 263 259 256 255 255 255 255 257 259 261 264 267
285 285 285 284 285 285 286 286 285 284 284 283 283 283 281 281 281 280 279 276 272 271 274 276 277 279 280 279 277 275 272 267 262 258 255 253 253 254 255 256 257 259 262
280 281 281 281 280 281 281 282 281 280 280 280 279 279 278 280 280 278 279 276 272 268 268 271 272 274 276 277 276 275 273 270 266 261 256 254 252 253 254 255 256 256 258
272 274 275 276 277 277 278 279 279 279 278 278 279 279 278 280 280 280 280 277 274 269 266 266 267 270 273 274 275 274 272 271 268 265 260 256 254 253 254 255 255 255 255
271 270 272 272 273 275 276 276 277 278 278 278 279 279 280 279 281 282 282 280 276 270 265 263 263 265 268 272 274 273 272 270 268 265 263 259 256 254 254 255 256 255 255
274 273 273 273 275 276 279 279 276 278 278 278 278 279 279 281 283 284 283 282 278 273 265 260 260 260 263 268 271 272 272 270 267 263 262 261 259 257 255 255 256 256 257
277 277 276 279 279 282 282 283 278 278 279 279 279 279 278 280 283 283 284 283 279 272 265 258 256 256 259 263 267 270 272 270 267 265 262 260 259 258 257 256 256 256 258
277 278 280 281 281 284 283 284 283 281 281 282 281 280 279 280 282 282 284 283 277 269 261 257 253 252 256 261 266 269 271 269 267 264 261 259 258 258 258 257 257 257 259
275 277 278 280 281 283 285 285 286 286 285 285 284 283 283 282 280 281 283 280 274 266 259 254 251 252 255 260 265 267 269 267 265 263 261 259 257 256 256 256 257 258 260
277 278 279 280 281 283 283 283 284 285 285 285 284 284 285 284 282 281 281 278 273 264 256 253 251 253 254 258 263 266 266 265 263 262 260 256 254 254 254 255 256 258 260
281 281 281 282 283 283 284 284 284 284 284 283 282 283 283 283 283 282 281 277 271 262 255 252 252 252 254 256 259 263 264 263 263 262 258 254 252 252 252 253 255 257 259
283 284 284 285 285 285 285 284 284 283 282 281 280 280 280 281 281 281 279 275 270 264 257 252 251 252 253 253 257 260 259 259 259 259 256 253 252 251 251 253 255 257 258
283 284 285 285 285 285 285 284 283 282 280 279 278 278 277 278 278 278 277 274 268 263 257 250 250 250 249 250 253 255 254 254 255 256 255 253 253 253 253 254 255 257 258
283 284 285 285 285 284 284 283 281 280 278 277 276 275 274 274 274 274 274 271 264 259 254 248 246 246 246 246 249 251 252 252 253 255 255 255 255 256 256 257 257 258 258
283 284 285 285 284 284 283 281 279 277 275 274 272 271 270 270 269 268 269 268 262 257 252 246 242 243 244 245 247 249 250 251 252 253 254 256 256 257 257 258 258 258 259
285 285 285 285 284 282 281 279 277 275 273 270 266 264 265 263 262 261 259 260 259 257 252 247 244 244 244 246 248 250 250 251 252 254 255 256 257 257 258 259 260 260 259
287 286 286 285 284 281 279 277 274 271 266 263 262 259 258 256 256 253 253 255 256 255 253 249 247 246 247 249 252 254 255 255 256 257 257 258 259 260 261 261 261 261 260
289 289 289 287 285 281 278 275 270 264 258 255 251 248 249 250 250 251 252 256 258 258 256 253 253 252 252 254 257 260 260 260 260 261 261 261 262 262 263 263 262 261 261
294 293 291 289 287 282 277 271 263 255 249 244 241 241 241 244 248 250 253 259 260 258 256 255 255 256 258 260 262 263 264 265 266 266 266 265 265 265 265 264 263 262 262
297 296 294 293 289 281 272 264 253 244 240 237 238 238 241 247 249 250 254 257 257 256 255 255 257 260 263 264 266 267 268 269 269 269 269 269 268 267 266 265 264 263 262
298 298 298 297 292 279 265 257 250 241 238 236 236 238 243 246 248 250 252 252 251 251 254 257 261 264 267 269 271 272 273 273 273 272 272 271 270 269 267 266 266 264 263
298 298 298 300 299 285 267 258 253 245 242 240 239 243 244 243 245 244 245 246 248 252 258 263 267 270 272 274 276 277 277 278 277 277 276 275 274 272 270 268 266 265 263
295 298 299 299 300 293 275 256 249 245 241 237 236 236 237 237 237 240 245 251 257 262 264 268 271 274 277 280 281 282 283 284 283 282 281 279 278 276 273 271 269 267 265
290 292 296 295 294 290 278 267 256 246 235 232 231 230 232 235 240 244 249 254 260 265 270 273 276 280 284 287 289 290 291 291 289 287 285 283 280 278 275 272 269 267 265
284 285 288 289 287 284 275 264 254 240 232 225 222 223 227 231 237 239 242 250 258 265 271 277 283 289 293 296 298 298 298 296 295 292 289 286 283 280 276 273 269 266 264
276 278 279 281 281 277 267 256 237 220 211 205 202 202 205 212 220 228 235 245 258 269 279 289 296 300 303 306 308 308 307 305 303 299 294 289 285 282 278 273 270 267 264
Height
5897 5896 5895 5893 5892 5890 5890 5888 5887 5886 5885 5884 5883 5882 5880 5879 5878 5878 5878 5877 5877 5877 5877 5876 5875 5873 5872 5870 5869 5869 5868 5868 5868 5867 5867 5868 5868 5868 5868 5868 5868 5869 5869
5890 5889 5887 5887 5885 5884 5882 5881 5881 5880 5879 5877 5876 5875 5874 5873 5872 5871 5870 5870 5870 5870 5870 5870 5869 5868 5866 5865 5864 5864 5864 5863 5863 5863 5863 5863 5863 5864 5864 5864 5864 5865 5865
5882 5880 5879 5878 5877 5875 5874 5873 5872 5872 5871 5870 5869 5867 5866 5865 5864 5862 5862 5861 5861 5861 5862 5862 5862 5862 5861 5859 5858 5858 5858 5858 5858 5858 5858 5858 5859 5859 5860 5860 5860 5860 5861
5875 5872 5870 5868 5866 5865 5865 5864 5863 5862 5861 5860 5859 5858 5857 5856 5855 5853 5852 5851 5851 5851 5852 5853 5854 5854 5854 5853 5852 5852 5852 5852 5852 5853 5853 5853 5854 5854 5855 5855 5856 5856 5856
5864 5862 5860 5857 5855 5854 5853 5852 5852 5851 5850 5849 5849 5849 5848 5846 5845 5844 5842 5841 5840 5841 5842 5843 5844 5846 5846 5846 5845 5844 5845 5845 5846 5846 5847 5847 5848 5848 5849 5850 5851 5851 5852
5853 5851 5849 5846 5844 5842 5841 5840 5840 5840 5839 5838 5838 5838 5838 5837 5836 5834 5832 5830 5829 5830 5831 5833 5835 5837 5838 5838 5837 5837 5837 5837 5838 5839 5840 5840 5841 5842 5843 5844 5845 5846 5847
5841 5839 5837 5835 5833 5832 5832 5831 5829 5829 5829 5828 5828 5828 5829 5828 5826 5825 5822 5820 5819 5819 5820 5823 5825 5828 5830 5830 5830 5829 5829 5829 5830 5831 5832 5833 5834 5835 5837 5838 5839 5840 5841
5831 5829 5826 5825 5823 5822 5822 5820 5819 5819 5819 5818 5817 5817 5818 5819 5817 5815 5812 5810 5809 5810 5811 5813 5815 5818 5821 5822 5822 5822 5822 5822 5822 5823 5824 5825 5826 5828 5829 5831 5833 5834 5835
5821 5819 5817 5815 5813 5812 5812 5811 5810 5810 5810 5809 5808 5807 5806 5807 5807 5806 5803 5800 5800 5800 5802 5804 5806 5809 5811 5813 5813 5813 5813 5814 5814 5815 5816 5817 5819 5820 5822 5824 5826 5827 5829
5811 5810 5808 5806 5805 5804 5803 5802 5801 5800 5800 5799 5798 5797 5796 5796 5796 5796 5794 5791 5791 5791 5793 5795 5798 5800 5802 5804 5805 5805 5805 5806 5807 5807 5808 5810 5811 5813 5815 5817 5819 5820 5822
5801 5800 5798 5797 5795 5794 5793 5792 5791 5790 5789 5789 5789 5788 5786 5786 5785 5785 5785 5783 5782 5783 5785 5787 5790 5792 5794 5795 5796 5797 5797 5798 5800 5800 5801 5803 5804 5806 5808 5810 5812 5813 5815
5792 5790 5788 5787 5785 5784 5782 5781 5780 5779 5779 5778 5778 5777 5776 5776 5775 5775 5775 5774 5773 5774 5777 5779 5781 5783 5785 5787 5788 5789 5790 5792 5793 5794 5795 5797 5798 5799 5801 5803 5804 5806 5807
5782 5780 5778 5776 5774 5772 5770 5769 5768 5767 5767 5766 5766 5766 5766 5765 5765 5765 5765 5765 5765 5766 5768 5770 5772 5774 5776 5778 5780 5781 5783 5785 5787 5788 5789 5791 5792 5793 5794 5796 5797 5799 5800
5770 5768 5766 5764 5762 5760 5758 5756 5755 5754 5754 5753 5753 5754 5754 5755 5755 5756 5756 5756 5757 5758 5760 5761 5763 5765 5768 5770 5772 5774 5776 5778 5780 5781 5783 5784 5785 5786 5787 5788 5790 5791 5792
5757 5756 5754 5751 5749 5747 5745 5743 5742 5741 5741 5741 5741 5742 5743 5744 5745 5746 5747 5748 5750 5751 5752 5753 5755 5757 5760 5762 5765 5766 5768 5770 5772 5774 5775 5776 5777 5778 5780 5781 5782 5783 5784
5744 5742 5740 5738 5736 5734 5732 5730 5729 5728 5728 5728 5729 5730 5732 5734 5737 5738 5740 5741 5742 5743 5744 5745 5747 5749 5752 5755 5757 5759 5761 5763 5764 5766 5767 5768 5769 5770 5771 5772 5773 5774 5774
5732 5730 5727 5725 5722 5721 5719 5718 5717 5717 5717 5718 5719 5721 5723 5726 5728 5730 5732 5734 5735 5736 5738 5739 5741 5743 5745 5747 5749 5752 5753 5755 5756 5757 5758 5759 5760 5761 5762 5762 5763 5764 5764
5721 5718 5716 5713 5710 5709 5707 5707 5706 5706 5707 5708 5711 5713 5715 5718 5721 5723 5725 5727 5729 5730 5732 5733 5735 5736 5738 5740 5742 5744 5745 5746 5747 5748 5749 5750 5751 5751 5752 5752 5753 5753 5754
5712 5709 5706 5703 5701 5699 5697 5696 5696 5697 5699 5701 5703 5706 5708 5711 5714 5716 5719 5721 5723 5724 5725 5727 5729 5730 5732 5734 5735 5736 5737 5738 5738 5739 5739 5740 5740 5741 5741 5741 5742 5742 5742
5704 5701 5698 5696 5693 5691 5690 5689 5690 5691 5692 5694 5697 5700 5702 5705 5707 5709 5712 5715 5716 5718 5719 5721 5723 5724 5726 5726 5727 5728 5728 5729 5729 5729 5729 5729 5729 5729 5729 5729 5730 5729 5729
5699 5696 5693 5690 5688 5686 5685 5685 5685 5686 5687 5689 5692 5694 5697 5699 5701 5704 5706 5708 5710 5712 5713 5715 5716 5718 5718 5719 5720 5720 5720 5719 5719 5719 5718 5718 5718 5717 5717 5716 5716 5716 5716
5694 5692 5689 5686 5684 5682 5681 5681 5681 5682 5683 5685 5687 5690 5692 5694 5696 5698 5700 5703 5705 5707 5708 5709 5710 5711 5712 5712 5711 5711 5711 5710 5710 5709 5708 5707 5706 5705 5704 5703 5702 5702 5702
5690 5688 5685 5683 5681 5679 5679 5678 5679 5679 5680 5682 5684 5686 5688 5690 5692 5694 5696 5698 5700 5702 5703 5704 5705 5705 5705 5704 5704 5703 5702 5701 5699 5698 5696 5695 5693 5692 5691 5690 5689 5689 5689
5686 5684 5683 5681 5679 5678 5677 5677 5677 5677 5678 5679 5681 5683 5685 5687 5688 5690 5693 5695 5696 5698 5698 5699 5699 5699 5698 5697 5696 5695 5694 5692 5690 5688 5685 5683 5681 5680 5678 5677 5676 5676 5676
5681 5680 5679 5678 5677 5676 5675 5675 5675 5675 5676 5677 5679 5681 5683 5684 5686 5688 5690 5692 5693 5694 5694 5694 5694 5693 5692 5691 5690 5688 5686 5683 5681 5678 5675 5672 5669 5667 5666 5665 5664 5664 5664
5676 5675 5675 5674 5674 5673 5673 5673 5673 5674 5675 5676 5678 5679 5681 5683 5684 5686 5687 5688 5689 5690 5690 5689 5689 5688 5687 5685 5683 5680 5677 5674 5671 5667 5664 5661 5659 5656 5655 5654 5653 5653 5653